[[{"header":{"parameterUnit":"m.s-1","parameterCategory":1,"la1":30.2991,"la2":30.254,"lo1":-89.0895,"lo2":-89.0444,"dy":0.0017,"dx":0.0017,"nx":28,"ny":28,"refTime":"2024-04-27T03:00:00:Z","depth":0,"parameterNumber":2,"parameterNumberName":"U-component_of_WINDS"},"data":[0,0,0,0,0,0,0,0,0,0,0,0,0,0,0,0,0,0,0,0,0,0,0,0,0,0,0,0,0,0,0,0,0,0,0,0,0,0,0,0,0,0,0,0,0,0,0,0,0,0,0,0,0,0,0,0,0,0,-4.6701,-4.6702,0,-4.6736,-4.6737,-4.6737,-4.6716,-4.6715,-4.6714,-4.6713,-4.6747,-4.6749,-4.6751,0,0,0,0,0,0,0,0,0,0,0,0,0,-4.6616,-4.6617,-4.6701,-4.6702,-4.6702,-4.6736,-4.6737,-4.6737,-4.6716,-4.6715,-4.6714,-4.6713,-4.6746,-4.6749,-4.6751,0,0,0,0,0,0,0,0,0,0,0,0,0,-4.6652,-4.6618,-4.6701,-4.6696,-4.6696,-4.6736,-4.6737,-4.6737,-4.6717,-4.6715,-4.6714,-4.6712,-4.6746,-4.6748,-4.6751,-4.6798,0,0,-4.6759,-4.6761,0,0,0,0,0,0,0,0,-4.665,-4.6655,-4.6696,-4.6696,-4.6696,-4.672,-4.6719,-4.6757,-4.6717,-4.6709,-4.6713,-4.6712,-4.6739,-4.6742,-4.6752,-4.6799,-4.6801,-4.676,-4.6761,-4.6762,-4.6763,0,0,0,0,0,0,0,-4.6647,-4.6654,-4.6715,-4.6697,-4.6697,-4.6692,-4.6695,-4.6726,-4.6732,-4.6709,-4.6708,-4.6712,-4.6739,-4.675,-4.6753,-4.6801,-4.676,-4.6762,-4.6764,-4.6765,-4.6889,-4.6891,0,0,0,0,0,0,-4.6646,-4.6652,-4.6714,-4.6716,-4.6669,-4.6694,-4.6698,-4.6714,-4.6731,-4.6733,-4.6714,-4.6711,-4.6746,-4.675,-4.6754,-4.6809,-4.6762,-4.6765,-4.6767,-4.6887,-4.6889,-4.6891,0,0,0,0,0,0,-4.6644,-4.6651,-4.6712,-4.6683,-4.6691,-4.6697,-4.6715,-4.6716,-4.6726,-4.6735,-4.6736,-4.6723,-4.6745,-4.675,-4.6787,-4.681,-4.6766,-4.6769,-4.6885,-4.6888,-4.689,-4.692,0,0,0,0,0,0,-4.6641,-4.6651,-4.6668,-4.6684,-4.6692,-4.6745,-4.6717,-4.6717,-4.6731,-4.6728,-4.6744,-4.6745,-4.6744,-4.6783,-4.679,-4.6813,-4.6771,-4.6883,-4.6887,-4.6889,-4.6917,-4.6924,-4.6929,0,0,0,0,0,-4.6638,-4.6675,-4.6669,-4.6677,-4.6715,-4.6747,-4.6751,-4.675,-4.6733,-4.6751,-4.6757,-4.6745,-4.6807,-4.6787,-4.6795,-4.6819,-4.6882,-4.6886,-4.6889,-4.6915,-4.6922,-4.6929,0,0,0,0,0,0,-4.666,-4.6677,-4.6671,-4.6713,-4.6729,-4.6743,-4.6765,-4.6758,-4.6777,-4.6774,-4.6771,-4.6774,-4.6813,-4.682,-4.6797,-4.6865,-4.6842,-4.6847,-4.6859,-4.6866,-4.6872,-4.6868,-4.6773,0,0,0,0,0,-4.6671,-4.6696,-4.6708,-4.6745,-4.6753,-4.6758,-4.6772,-4.677,-4.6785,-4.6791,-4.68,-4.6815,-4.6838,-4.6853,-4.6874,-4.692,-4.6922,-4.694,-4.6946,-4.6951,-4.6954,-4.6979,-4.6987,-4.6903,-4.6903,-4.6903,0,0,-4.6691,-4.6703,-4.6719,-4.675,-4.6761,-4.6787,-4.6763,-4.6791,-4.681,-4.6795,-4.683,-4.6838,-4.6855,-4.6896,-4.6914,-4.6903,-4.6979,-4.6955,-4.6959,-4.696,-4.6984,-4.6991,-4.6998,-4.6906,-4.6906,-4.6905,0,0,-4.6741,-4.6753,-4.6785,-4.6798,-4.6816,-4.682,-4.6828,-4.6844,-4.6848,-4.6884,-4.6874,-4.6896,-4.6936,-4.6948,-4.696,-4.7018,-4.7007,-4.7025,-4.7054,-4.7078,-4.7085,-4.7091,-4.711,-4.7118,-4.703,-4.703,-4.703,0,-4.6763,-4.6802,-4.6802,-4.6831,-4.6845,-4.6834,-4.6866,-4.6879,-4.6903,-4.6913,-4.69,-4.6951,-4.6961,-4.7005,-4.702,-4.703,-4.7038,-4.7022,-4.7084,-4.709,-4.7095,-4.7114,-4.7122,-4.7032,-4.7031,-4.7031,-4.7031,0,-4.6828,-4.6855,-4.6879,-4.6904,-4.6921,-4.6951,-4.6956,-4.6973,-4.697,-4.6975,-4.7012,-4.7025,-4.705,-4.7061,-4.7057,-4.7105,-4.7097,-4.7085,-4.706,-4.7105,-4.7123,-4.713,-4.7034,-4.7034,-4.7033,-4.7033,0,0,-4.689,-4.6917,-4.6925,-4.6936,-4.6958,-4.6978,-4.7009,-4.7034,-4.7048,-4.7067,-4.7092,-4.7127,-4.7116,-4.7129,-4.7128,-4.7149,-4.7194,-4.7134,-4.7135,-4.7144,-4.7246,-4.7254,-4.7262,-4.7188,-4.719,-4.7191,-4.7244,0,-4.694,-4.6993,-4.6995,-4.7044,-4.7069,-4.7061,-4.7088,-4.7104,-4.711,-4.7132,-4.7139,-4.7163,-4.7148,-4.7156,-4.7177,-4.7184,-4.7214,-4.718,-4.721,-4.7211,-4.7204,-4.7271,-4.7279,-4.7329,-4.7251,-4.7252,-4.7253,0,-4.7005,-4.7026,-4.7077,-4.7096,-4.7107,-4.7131,-4.7154,-4.7176,-4.7194,-4.7197,-4.7214,-4.721,-4.7241,-4.7218,-4.7261,-4.7238,-4.7251,-4.7257,-4.7259,-4.726,-4.7233,-4.7272,-4.7345,-4.7351,-4.7264,-4.7263,-4.7262,0,-4.7043,-4.7085,-4.7121,-4.7132,-4.7155,-4.7172,-4.7182,-4.7199,-4.7214,-4.7235,-4.7245,-4.7269,-4.7282,-4.7301,-4.7304,-4.7287,-4.7347,-4.7324,-4.7349,-4.7349,-4.736,-4.7359,-4.7433,-4.7372,-4.7372,-4.7371,-4.7371,0,-4.7097,-4.7129,-4.7139,-4.7161,-4.7196,-4.7199,-4.7234,-4.7243,-4.7258,-4.7282,-4.7277,-4.7299,-4.7303,-4.7326,-4.7329,-4.7364,-4.737,-4.7373,-4.7373,-4.7372,-4.7371,-4.7379,-4.7375,-4.7373,-4.7373,-4.7373,-4.7372,0,-4.7145,-4.7153,-4.7192,-4.7211,-4.7217,-4.7242,-4.7259,-4.728,-4.7287,-4.7317,-4.7324,-4.7335,-4.7362,-4.7368,-4.7399,-4.7401,-4.7442,-4.744,-4.7436,-4.7435,-4.746,-4.7457,-4.754,-4.7551,-4.7484,-4.7484,-4.7485,0,-4.7178,-4.7202,-4.7225,-4.7241,-4.7253,-4.7278,-4.7294,-4.7299,-4.7316,-4.734,-4.7358,-4.7385,-4.7406,-4.745,-4.746,-4.7485,-4.7482,-4.751,-4.7486,-4.7484,-4.7481,-4.7479,-4.7481,-4.7513,-4.7514,-4.7515,-4.7515,0,-4.7236,-4.7239,-4.7263,-4.7289,-4.7308,-4.7328,-4.7348,-4.7361,-4.7368,-4.7388,-4.7416,-4.7433,-4.7466,-4.7493,-4.7518,-4.7529,-4.7523,-4.7523,-4.753,-4.7529,-4.7525,-4.7526,-4.7447,-4.7521,-4.752,-4.752,-4.7519,-4.7519,-4.7276,-4.7298,-4.7317,-4.7344,-4.736,-4.7378,-4.7399,-4.741,-4.7434,-4.7462,-4.7463,-4.7494,-4.7513,-4.7546,-4.7559,-4.7583,-4.7574,-4.7584,-4.7586,-4.7588,-4.759,-4.7523,-4.7587,-4.7587,-4.7587,-4.7587,-4.7587,0,-4.7333,-4.7346,-4.7371,-4.7399,-4.742,-4.7415,-4.7436,-4.7454,-4.7482,-4.75,-4.7522,-4.7555,-4.7582,-4.7595,-4.7621,-4.7638,-4.7636,-4.7644,-4.7642,-4.7645,-4.7597,-4.7588,-4.7645,-4.7645,-4.7645,-4.7645,-4.7645,-4.7645,-4.7365,-4.7401,-4.7407,-4.745,-4.7463,-4.7494,-4.7506,-4.7524,-4.7539,-4.7576,-4.7598,-4.7607,-4.7624,-4.7651,-4.7676,-4.7679,-4.7688,-4.7697,-4.7699,-4.7654,-4.7648,-4.7642,-4.7633,-4.77,-4.77,-4.7745,-4.7745,-4.7746]},{"header":{"parameterUnit":"m.s-1","parameterCategory":1,"la1":30.2991,"la2":30.254,"lo1":-89.0895,"lo2":-89.0444,"dy":0.0017,"dx":0.0017,"nx":28,"ny":28,"refTime":"2024-04-27T03:00:00:Z","depth":0,"parameterNumber":3,"parameterNumberName":"V-component_of_WINDS"},"data":[0,0,0,0,0,0,0,0,0,0,0,0,0,0,0,0,0,0,0,0,0,0,0,0,0,0,0,0,0,0,0,0,0,0,0,0,0,0,0,0,0,0,0,0,0,0,0,0,0,0,0,0,0,0,0,0,0,0,5.0471,5.0471,0,5.0481,5.0481,5.0481,5.0509,5.051,5.0511,5.0511,5.0516,5.0515,5.0515,0,0,0,0,0,0,0,0,0,0,0,0,0,5.0473,5.0473,5.0471,5.0471,5.0472,5.0481,5.0481,5.0481,5.0509,5.051,5.0511,5.0512,5.0516,5.0515,5.0515,0,0,0,0,0,0,0,0,0,0,0,0,0,5.0476,5.0473,5.0471,5.0487,5.0488,5.0481,5.0481,5.0481,5.0509,5.051,5.0511,5.0512,5.0516,5.0515,5.0514,5.0491,0,0,5.0512,5.0512,0,0,0,0,0,0,0,0,5.0476,5.0476,5.0484,5.0486,5.0487,5.0495,5.0483,5.0484,5.0509,5.0501,5.0511,5.0512,5.0508,5.0508,5.0507,5.0491,5.0492,5.0512,5.0512,5.0512,5.0511,0,0,0,0,0,0,0,5.0476,5.0476,5.0475,5.0484,5.0486,5.0492,5.0494,5.0484,5.0499,5.0502,5.0504,5.0505,5.0509,5.0508,5.0507,5.0492,5.0512,5.0512,5.0511,5.0511,5.0459,5.0458,0,0,0,0,0,0,5.0474,5.0475,5.0475,5.0475,5.0484,5.0491,5.0493,5.0492,5.0499,5.0501,5.0504,5.0506,5.0509,5.0508,5.0508,5.0482,5.0512,5.0511,5.051,5.046,5.0459,5.0458,0,0,0,0,0,0,5.0474,5.0474,5.0474,5.0476,5.0477,5.049,5.0488,5.0491,5.0491,5.0501,5.0503,5.0501,5.0509,5.0509,5.0496,5.0483,5.0511,5.051,5.0461,5.0459,5.0458,5.043,0,0,0,0,0,0,5.0474,5.0473,5.0465,5.0476,5.0476,5.0463,5.0488,5.0491,5.049,5.0493,5.0498,5.05,5.051,5.0497,5.0495,5.0482,5.0509,5.0462,5.046,5.0459,5.0432,5.0428,5.0424,0,0,0,0,0,5.0474,5.0455,5.0465,5.0465,5.0467,5.0462,5.0463,5.0476,5.0489,5.0481,5.0487,5.05,5.0485,5.0495,5.0494,5.048,5.0463,5.0461,5.0459,5.0434,5.0428,5.0424,0,0,0,0,0,0,5.0441,5.0457,5.0468,5.0452,5.0456,5.0467,5.0457,5.047,5.0468,5.0471,5.0486,5.0487,5.0472,5.0475,5.0486,5.0459,5.0476,5.0473,5.0458,5.0453,5.0449,5.0448,5.0509,0,0,0,0,0,5.0432,5.0429,5.0442,5.0428,5.0429,5.0443,5.0441,5.0452,5.0455,5.0456,5.0462,5.0464,5.046,5.0456,5.0453,5.0433,5.0435,5.0423,5.0419,5.0415,5.0413,5.0404,5.0399,5.0451,5.0451,5.0451,0,0,5.0413,5.0422,5.0418,5.0421,5.0425,5.0421,5.0444,5.0437,5.0433,5.0455,5.0444,5.0448,5.0451,5.0435,5.0428,5.0437,5.0399,5.0413,5.041,5.0409,5.0401,5.0396,5.0392,5.0449,5.0449,5.045,0,0,5.0377,5.0383,5.0372,5.0377,5.0384,5.0393,5.0391,5.04,5.0405,5.0395,5.0411,5.0406,5.0398,5.04,5.04,5.0367,5.0379,5.0365,5.0344,5.0335,5.033,5.0327,5.0316,5.0311,5.0363,5.0363,5.0363,0,5.0352,5.0347,5.0364,5.0358,5.0359,5.0381,5.0369,5.0372,5.0376,5.0376,5.0386,5.0379,5.0382,5.0367,5.036,5.0358,5.0356,5.0364,5.033,5.0327,5.0323,5.0313,5.0308,5.0361,5.0361,5.0361,5.0362,0,5.0317,5.0313,5.0303,5.031,5.031,5.03,5.0316,5.0313,5.0324,5.0332,5.0322,5.0327,5.0326,5.0323,5.0332,5.031,5.0316,5.0328,5.0345,5.0317,5.0307,5.0303,5.0359,5.0359,5.036,5.036,0,0,5.0258,5.0277,5.0273,5.0277,5.0287,5.0284,5.0276,5.0277,5.0275,5.0277,5.0271,5.0265,5.0277,5.0277,5.0287,5.0279,5.0253,5.0292,5.0292,5.0285,5.023,5.0221,5.0216,5.0262,5.0261,5.026,5.023,0,5.0224,5.0213,5.023,5.0215,5.0212,5.0233,5.0227,5.0232,5.0239,5.0237,5.0245,5.0241,5.0257,5.0257,5.025,5.0258,5.0242,5.026,5.0255,5.0254,5.0253,5.0211,5.02,5.0171,5.0226,5.0225,5.0225,0,5.0183,5.0187,5.0172,5.0185,5.0185,5.0178,5.0182,5.0179,5.0185,5.0192,5.0193,5.0206,5.0198,5.0216,5.0205,5.0217,5.0216,5.0219,5.0219,5.0218,5.0238,5.0209,5.0162,5.0158,5.0219,5.0219,5.022,0,5.0143,5.0144,5.0136,5.0138,5.0153,5.0148,5.0154,5.0162,5.0162,5.0164,5.0164,5.0164,5.0165,5.0164,5.0177,5.0188,5.0165,5.0183,5.0169,5.0169,5.0163,5.0163,5.0115,5.0162,5.0162,5.0162,5.0162,0,5.0103,5.0093,5.0118,5.0113,5.0103,5.0122,5.011,5.0118,5.0125,5.0121,5.0139,5.0135,5.0152,5.0149,5.0159,5.0149,5.0148,5.0153,5.0155,5.0151,5.0151,5.015,5.0152,5.0161,5.0161,5.0161,5.0162,0,5.0056,5.0072,5.0065,5.0081,5.0085,5.0076,5.0089,5.0085,5.0095,5.009,5.0089,5.0104,5.0102,5.0115,5.0115,5.0121,5.0107,5.0113,5.0105,5.0107,5.0093,5.0094,5.0043,5.0037,5.0087,5.0087,5.0086,0,5.003,5.0023,5.0039,5.0039,5.0045,5.0044,5.0045,5.0063,5.0063,5.0071,5.0066,5.0066,5.0067,5.0062,5.0072,5.0072,5.0078,5.006,5.0078,5.0075,5.0078,5.0079,5.0078,5.0056,5.0056,5.0055,5.0055,0,4.9982,4.9991,4.9993,4.9998,4.9999,5.0004,5.0009,5.0007,5.0027,5.0026,5.0026,5.0027,5.0028,5.0028,5.003,5.0035,5.0048,5.005,5.0046,5.0042,5.0038,5.004,5.0095,5.005,5.0051,5.0051,5.0051,5.0051,4.9944,4.994,4.9952,4.9954,4.996,4.9965,4.9963,4.9973,4.9974,4.9978,4.9988,4.9986,4.9993,4.9998,5.0002,5.0,5.0008,5.0003,5.0002,5.0001,4.9998,5.0039,5.0,5.0,5.0,5.0,5.0001,0,4.9898,4.9907,4.9909,4.9917,4.9919,4.9934,4.9941,4.994,4.9939,4.9946,4.9947,4.9947,4.9947,4.9958,4.996,4.9956,4.9962,4.9956,4.9956,4.9957,4.999,4.9993,4.9951,4.9951,4.9951,4.9951,4.9951,4.9951,4.9874,4.9868,4.9879,4.9876,4.9885,4.9885,4.9888,4.9893,4.9898,4.9898,4.9899,4.9907,4.9916,4.9918,4.9919,4.9922,4.9922,4.9913,4.9918,4.9949,4.9954,4.9959,4.9962,4.9913,4.9913,4.9885,4.9885,4.9885]}]]